When you browse on this site, cookies collect data to enhance your experience and personalize the content and advertising you see.
Visit our Privacy Policy to learn more. By continuing to use the site, you agree to this use of cookies and data.
  • în România
  • Lista ţărilor
  • Pe 7 zile
  • Temperatura apei
  • Meteo pe hartă
  • Widget-uri
  • user-avatar
    Intrare

    Meteo pe oră la Dar-es-Salam

    Astăzi, 7 Aprilie, Marţi

    Timp Temperatura Precipitaţii Vânt Presiune Umiditate
    00:00 +29°C° 0 mm 2 m/s 758 mmHg 76%
    01:00 +29°C° 0 mm 2 m/s 758 mmHg 76%
    02:00 +28°C° 0 mm 1 m/s 757 mmHg 77%
    03:00 +28°C° 0 mm 1 m/s 757 mmHg 76%
    04:00 +28°C° 0.1 mm 1 m/s 757 mmHg 76%
    05:00 +28°C° 0.1 mm 1 m/s 758 mmHg 77%
    06:00 +28°C° 0.1 mm 1 m/s 758 mmHg 78%
    07:00 +29°C° 0.4 mm 1 m/s 758 mmHg 75%
    08:00 +30°C° 0.4 mm 1 m/s 759 mmHg 71%
    09:00 +32°C° 0 mm 1 m/s 760 mmHg 65%
    10:00 +32°C° 0.3 mm 1 m/s 759 mmHg 64%
    11:00 +34°C° 0.3 mm 2 m/s 759 mmHg 63%
    12:00 +34°C° 0.3 mm 2 m/s 758 mmHg 61%
    13:00 +34°C° 0.6 mm 2 m/s 757 mmHg 61%
    14:00 +34°C° 0.6 mm 3 m/s 756 mmHg 62%
    15:00 +34°C° 0.6 mm 3 m/s 755 mmHg 62%
    16:00 +33°C° 0 mm 3 m/s 755 mmHg 65%
    17:00 +31°C° 0 mm 3 m/s 755 mmHg 68%
    18:00 +31°C° 0 mm 3 m/s 756 mmHg 72%
    19:00 +30°C° 0 mm 3 m/s 756 mmHg 73%
    20:00 +30°C° 0 mm 2 m/s 757 mmHg 74%
    21:00 +29°C° 0 mm 2 m/s 758 mmHg 75%
    22:00 +29°C° 0 mm 2 m/s 758 mmHg 75%
    23:00 +29°C° 0 mm 2 m/s 758 mmHg 76%

    Mâine, 8 Aprilie, Miercuri

    Timp Temperatura Precipitaţii Vânt Presiune Umiditate
    00:00 +29°C° 0 mm 2 m/s 758 mmHg 76%
    01:00 +29°C° 0 mm 2 m/s 758 mmHg 77%
    02:00 +29°C° 0 mm 2 m/s 757 mmHg 78%
    03:00 +29°C° 0 mm 2 m/s 757 mmHg 79%
    04:00 +29°C° 0.1 mm 2 m/s 757 mmHg 79%
    05:00 +29°C° 0.1 mm 2 m/s 757 mmHg 80%
    06:00 +28°C° 0.1 mm 2 m/s 758 mmHg 80%
    07:00 +29°C° 0.1 mm 2 m/s 758 mmHg 76%
    08:00 +31°C° 0.1 mm 3 m/s 759 mmHg 73%
    09:00 +33°C° 0.1 mm 3 m/s 759 mmHg 69%
    10:00 +33°C° 0.1 mm 3 m/s 759 mmHg 65%
    11:00 +34°C° 0.1 mm 4 m/s 758 mmHg 62%
    12:00 +35°C° 0.1 mm 4 m/s 758 mmHg 58%
    13:00 +35°C° 0.1 mm 4 m/s 757 mmHg 58%
    14:00 +35°C° 0.1 mm 4 m/s 757 mmHg 57%
    15:00 +35°C° 0.1 mm 4 m/s 756 mmHg 57%
    16:00 +34°C° 0 mm 4 m/s 756 mmHg 61%
    17:00 +33°C° 0 mm 4 m/s 756 mmHg 66%
    18:00 +32°C° 0 mm 4 m/s 756 mmHg 71%
    19:00 +30°C° 0 mm 4 m/s 757 mmHg 72%
    20:00 +30°C° 0 mm 4 m/s 758 mmHg 74%
    21:00 +29°C° 0 mm 3 m/s 758 mmHg 76%
    22:00 +29°C° 0 mm 3 m/s 758 mmHg 76%
    23:00 +29°C° 0 mm 3 m/s 758 mmHg 77%

    Poimâine, 9 Aprilie, Joi

    Timp Temperatura Precipitaţii Vânt Presiune Umiditate
    00:00 +28°C° 0 mm 2 m/s 758 mmHg 78%
    01:00 +28°C° 0 mm 2 m/s 758 mmHg 80%
    02:00 +28°C° 0 mm 2 m/s 758 mmHg 81%
    03:00 +28°C° 0 mm 2 m/s 757 mmHg 83%
    04:00 +28°C° 0.1 mm 2 m/s 757 mmHg 84%
    05:00 +27°C° 0.1 mm 2 m/s 758 mmHg 85%
    06:00 +27°C° 0.1 mm 2 m/s 758 mmHg 85%
    07:00 +28°C° 0.9 mm 2 m/s 758 mmHg 82%
    08:00 +29°C° 0.9 mm 2 m/s 759 mmHg 78%
    09:00 +31°C° 0.9 mm 2 m/s 760 mmHg 74%
    10:00 +31°C° 0.8 mm 2 m/s 759 mmHg 69%
    11:00 +33°C° 0.8 mm 3 m/s 759 mmHg 64%
    12:00 +34°C° 0.8 mm 3 m/s 759 mmHg 59%
    13:00 +34°C° 0.8 mm 3 m/s 758 mmHg 60%
    14:00 +34°C° 0.8 mm 4 m/s 757 mmHg 62%
    15:00 +34°C° 0.8 mm 4 m/s 757 mmHg 63%
    16:00 +33°C° 0.7 mm 4 m/s 757 mmHg 68%
    17:00 +32°C° 0.7 mm 4 m/s 757 mmHg 72%
    18:00 +30°C° 0.7 mm 4 m/s 757 mmHg 77%
    19:00 +29°C° 0.3 mm 4 m/s 757 mmHg 80%
    20:00 +29°C° 0.3 mm 4 m/s 758 mmHg 83%
    21:00 +28°C° 0.3 mm 4 m/s 758 mmHg 86%
    22:00 +28°C° 0.3 mm 4 m/s 758 mmHg 86%
    23:00 +28°C° 0.3 mm 4 m/s 758 mmHg 86%

    10 Aprilie, Vineri

    Timp Temperatura Precipitaţii Vânt Presiune Umiditate
    00:00 +28°C° 0.3 mm 4 m/s 758 mmHg 87%
    01:00 +28°C° 0.4 mm 4 m/s 758 mmHg 87%
    02:00 +27°C° 0.4 mm 4 m/s 757 mmHg 88%
    03:00 +27°C° 0.4 mm 4 m/s 757 mmHg 88%
    04:00 +27°C° 0.6 mm 4 m/s 757 mmHg 89%
    05:00 +27°C° 0.6 mm 4 m/s 757 mmHg 89%
    06:00 +27°C° 0.6 mm 4 m/s 758 mmHg 90%
    07:00 +27°C° 0.4 mm 5 m/s 758 mmHg 87%
    08:00 +28°C° 0.4 mm 5 m/s 759 mmHg 85%
    09:00 +29°C° 0.4 mm 5 m/s 759 mmHg 82%
    10:00 +30°C° 0.5 mm 5 m/s 759 mmHg 79%
    11:00 +32°C° 0.5 mm 5 m/s 758 mmHg 75%
    12:00 +32°C° 0.5 mm 5 m/s 758 mmHg 72%
    13:00 +33°C° 0.4 mm 5 m/s 758 mmHg 70%
    14:00 +33°C° 0.4 mm 5 m/s 757 mmHg 68%
    15:00 +33°C° 0.4 mm 5 m/s 757 mmHg 66%
    16:00 +33°C° 0.1 mm 5 m/s 757 mmHg 70%
    17:00 +32°C° 0.1 mm 5 m/s 757 mmHg 74%
    18:00 +30°C° 0.1 mm 4 m/s 757 mmHg 77%
    19:00 +29°C° 0.1 mm 4 m/s 757 mmHg 80%
    20:00 +29°C° 0.1 mm 4 m/s 758 mmHg 83%
    21:00 +28°C° 0.1 mm 4 m/s 758 mmHg 85%
    22:00 +28°C° 0.1 mm 4 m/s 758 mmHg 86%
    23:00 +28°C° 0.1 mm 4 m/s 758 mmHg 86%

    11 Aprilie, Sâmbătă

    Timp Temperatura Precipitaţii Vânt Presiune Umiditate
    00:00 +28°C° 0.1 mm 4 m/s 758 mmHg 87%
    01:00 +27°C° 0.2 mm 4 m/s 757 mmHg 87%
    02:00 +27°C° 0.2 mm 5 m/s 757 mmHg 88%
    03:00 +27°C° 0.2 mm 5 m/s 756 mmHg 88%
    04:00 +27°C° 0.2 mm 5 m/s 756 mmHg 88%
    05:00 +27°C° 0.2 mm 4 m/s 756 mmHg 88%
    06:00 +26°C° 0.2 mm 4 m/s 757 mmHg 88%
    07:00 +27°C° 1.1 mm 5 m/s 757 mmHg 86%
    08:00 +28°C° 1.1 mm 5 m/s 758 mmHg 83%
    09:00 +28°C° 1.1 mm 5 m/s 759 mmHg 80%
    10:00 +29°C° 1.2 mm 5 m/s 758 mmHg 80%
    11:00 +29°C° 1.2 mm 5 m/s 758 mmHg 81%
    12:00 +29°C° 1.2 mm 5 m/s 757 mmHg 81%
    13:00 +29°C° 1 mm 4 m/s 757 mmHg 81%
    14:00 +29°C° 1 mm 4 m/s 756 mmHg 82%
    15:00 +29°C° 1 mm 4 m/s 756 mmHg 82%
    16:00 +28°C° 0.9 mm 4 m/s 756 mmHg 83%
    17:00 +28°C° 0.9 mm 4 m/s 756 mmHg 84%
    18:00 +28°C° 0.9 mm 4 m/s 756 mmHg 85%
    19:00 +27°C° 1.2 mm 4 m/s 757 mmHg 86%
    20:00 +27°C° 1.2 mm 4 m/s 757 mmHg 87%
    21:00 +27°C° 1.2 mm 4 m/s 758 mmHg 88%
    22:00 +27°C° 6 mm 4 m/s 757 mmHg 90%
    23:00 +26°C° 6 mm 4 m/s 757 mmHg 91%

    12 Aprilie, Duminică

    Timp Temperatura Precipitaţii Vânt Presiune Umiditate
    00:00 +26°C° 6 mm 4 m/s 757 mmHg 93%
    01:00 +26°C° 15 mm 3 m/s 757 mmHg 93%
    02:00 +26°C° 15 mm 3 m/s 756 mmHg 94%
    03:00 +26°C° 15 mm 2 m/s 756 mmHg 94%
    04:00 +26°C° 4.1 mm 3 m/s 756 mmHg 94%
    05:00 +26°C° 4.1 mm 3 m/s 756 mmHg 94%
    06:00 +26°C° 4.1 mm 3 m/s 756 mmHg 94%
    07:00 +26°C° 2.8 mm 4 m/s 757 mmHg 94%
    08:00 +26°C° 2.8 mm 4 m/s 757 mmHg 94%
    09:00 +26°C° 2.8 mm 4 m/s 758 mmHg 93%
    10:00 +27°C° 0.5 mm 4 m/s 758 mmHg 92%
    11:00 +27°C° 0.5 mm 4 m/s 758 mmHg 91%
    12:00 +28°C° 0.5 mm 4 m/s 757 mmHg 90%
    13:00 +27°C° 1.6 mm 4 m/s 757 mmHg 90%
    14:00 +27°C° 1.6 mm 4 m/s 756 mmHg 91%
    15:00 +27°C° 1.6 mm 4 m/s 756 mmHg 91%
    16:00 +27°C° 2.7 mm 4 m/s 756 mmHg 92%
    17:00 +27°C° 2.7 mm 3 m/s 756 mmHg 92%
    18:00 +27°C° 2.7 mm 2 m/s 756 mmHg 93%
    19:00 +27°C° 1.5 mm 2 m/s 756 mmHg 93%
    20:00 +26°C° 1.5 mm 2 m/s 757 mmHg 94%
    21:00 +26°C° 1.5 mm 3 m/s 757 mmHg 94%
    22:00 +26°C° 0.1 mm 2 m/s 757 mmHg 93%
    23:00 +26°C° 0.1 mm 2 m/s 757 mmHg 92%
    Arată mai mult